Flag for Australia Weather past 2 weeks in Sydney, New South Wales, Australia

Now
64 °F

Passing clouds.


Feels Like: 64 °F
Forecast: 63 / 74 °F
Wind: 9 mph from Southwest

Location: Sydney Airport

Current Time: Dec 20, 2014 at 5:26:48 AM

Latest Report: Dec 20, 2014 at 5:00 AM


Visibility: N/A

Pressure: 30.04 "Hg

Humidity: 64%

Dew point: 52 °F

Location of SydneyLocation

Historic Weather in Sydney — Graph

°F

Sydney temperature yesterday

Maximum temperature yesterday: 73 °F (at 12:00 AM)
Minimum temperature yesterday: 66 °F (at 4:00 AM)
Average temperature yesterday: 69 °F

Past Weeks' High & Low Weather Summary

 TemperatureHumidityPressure
High91 °F (Dec 8, 12:45 PM)100% (Dec 7, 5:51 PM)30.09 "Hg (Dec 7, 5:51 PM)
Low61 °F (Dec 14, 4:00 AM)31% (Dec 8, 6:00 PM)29.42 "Hg (Dec 16, 5:00 PM)
Average71 °F69%29.81 "Hg
* Reported Dec 5 4:00 AM — Dec 20 4:00 AM, Sydney, Weather by CustomWeather, © 2014

Note: Actual official high and low records may vary slightly from our data, if they occured in-between our weather recording intervals... More about our weather records

Advertising

Sydney weather history for previous 24 hours

 ConditionsComfort  
Time TempWeatherWind HumidityBarometerVisibility
4:00 AM
Dec 20
66 °FPartly cloudy.9 mph56%30.01 "HgN/A
3:30 AM66 °FPassing clouds.9 mph56%30.04 "HgN/A
3:00 AM66 °FPassing clouds.9 mph56%30.04 "HgN/A
2:30 AM66 °FPartly cloudy.10 mph60%30.04 "HgN/A
2:00 AM66 °FPartly cloudy.9 mph56%30.04 "HgN/A
1:30 AM66 °FPartly cloudy.9 mph56%30.04 "HgN/A
1:00 AM66 °FPassing clouds.9 mph56%30.07 "HgN/A
12:30 AM66 °FPassing clouds.10 mph60%30.07 "HgN/A
12:00 AM66 °FPassing clouds.10 mph56%30.07 "HgN/A
11:30 PM
Dec 19
66 °FPartly cloudy.15 mph60%30.07 "HgN/A
11:00 PM66 °FPassing clouds.14 mph60%30.07 "HgN/A
10:30 PM66 °FPassing clouds.12 mph52%30.07 "HgN/A
10:00 PM66 °FPartly cloudy.16 mph52%30.07 "HgN/A
9:30 PM68 °FPassing clouds.14 mph53%30.04 "HgN/A
9:00 PM68 °FPassing clouds.14 mph53%30.04 "HgN/A
8:30 PM68 °FPassing clouds.15 mph53%30.04 "HgN/A
8:00 PM68 °FPartly sunny.16 mph49%30.01 "HgN/A
7:00 PM68 °FPartly sunny.15 mph53%29.98 "HgN/A
6:30 PM68 °FBroken clouds.16 mph49%29.98 "HgN/A
6:00 PM68 °FBroken clouds.17 mph53%29.95 "HgN/A
4:30 PM70 °FScattered clouds.18 mph53%29.92 "HgN/A
4:00 PM70 °FPassing clouds.17 mph50%29.92 "HgN/A
3:30 PM73 °FPassing clouds.17 mph44%29.92 "HgN/A
3:00 PM70 °FPassing clouds.17 mph46%29.92 "HgN/A
2:30 PM72 °FScattered clouds.17 mph41%29.92 "HgN/A
2:00 PM70 °FScattered clouds.17 mph53%29.92 "HgN/A
1:30 PM70 °FScattered clouds.20 mph50%29.92 "HgN/A
1:00 PM70 °FPartly sunny.17 mph53%29.92 "HgN/A
12:30 PM70 °FPartly sunny.17 mph53%29.92 "HgN/A
12:00 PM70 °FPartly sunny.18 mph53%29.92 "HgN/A
11:30 AM70 °FScattered clouds.21 mph57%29.92 "HgN/A
11:00 AM68 °FPartly sunny.20 mph60%29.92 "HgN/A
10:30 AM68 °FPartly sunny.21 mph64%29.92 "HgN/A
10:00 AM68 °FPassing clouds.22 mph56%29.89 "HgN/A
9:30 AM68 °FPassing clouds.23 mph64%29.89 "HgN/A
9:00 AM68 °FPassing clouds.23 mph60%29.89 "HgN/A
8:30 AM68 °FPassing clouds.22 mph64%29.89 "HgN/A
8:00 AM66 °FScattered clouds.24 mph68%29.89 "HgN/A
7:00 AM66 °FPassing clouds.26 mph73%29.86 "HgN/A
6:30 AM66 °FPassing clouds.28 mph73%29.83 "HgN/A
6:00 AM66 °FScattered clouds.26 mph78%29.83 "HgN/A
5:30 AM66 °FPassing clouds.26 mph83%29.80 "HgN/A
5:00 AM66 °FPassing clouds.29 mph83%29.77 "HgN/A
Weather by CustomWeather, © 2014

See weather overviewHow to use our weather pages